Location: Caltech
(34.1382°N, 118.1253°W)
Time: 10:07:25
(UTC-07:00)

JAS-1B - Visible Passes

Search period start: 26 April 2018 00:00
Search period end: 06 May 2018 00:00
Orbit: 911 x 1744 km, 99.1° (Epoch: 26 April)

Date Brightness Start Highest point End Pass type
(mag) Time Alt. Az. Time Alt. Az. Time Alt. Az.
26 Apr 8.0 23:13:42 38° N 23:13:42 38° N 23:17:05 10° NNW visible
27 Apr 8.8 21:40:36 13° ENE 21:40:36 13° ENE 21:42:50 10° NE visible
27 Apr 8.3 23:32:51 34° NNW 23:32:51 34° NNW 23:36:02 10° NNW visible
28 Apr 8.5 21:59:44 19° NE 21:59:44 19° NE 22:03:03 10° NNE visible
28 Apr 8.6 23:51:59 27° NW 23:51:59 27° NW 23:54:48 10° NNW visible
29 Apr 8.2 22:18:52 27° NE 22:18:52 27° NE 22:22:43 10° N visible
30 Apr 8.9 00:11:07 20° NW 00:11:07 20° NW 00:13:20 10° NW visible
30 Apr 7.8 22:38:01 37° NE 22:38:01 37° NE 22:42:06 10° N visible
01 May 9.3 00:30:16 14° WNW 00:30:16 14° WNW 00:31:29 10° NW visible
01 May 7.6 22:57:09 46° NNE 22:57:09 46° NNE 23:01:19 10° N visible
02 May 7.7 23:16:17 46° NNW 23:16:17 46° NNW 23:20:22 10° NNW visible
03 May 8.7 21:43:11 16° ENE 21:43:26 16° ENE 21:46:46 10° NNE visible
03 May 8.0 23:35:26 38° NW 23:35:26 38° NW 23:39:16 10° NNW visible
04 May 8.3 22:02:20 23° ENE 22:02:20 23° ENE 22:06:41 10° NNE visible
04 May 8.5 23:54:34 29° WNW 23:54:34 29° WNW 23:57:58 10° NNW visible
05 May 7.9 22:21:28 33° NE 22:21:28 33° NE 22:26:15 10° N visible
